Regional Weather Roundup
Issued by NWS

Home | Current Version | Previous Version | Graphics & Text | Print | Product List | Glossary Off
Versions: 1 2 3 4 5 6 7 8 9 10 11 12 13 14 15 16 17 18 19 20 21 22 23 24 25 26 27 28 29 30 31 32 33 34 35 36 37 38 39 40 41 42 43 44 45 46 47 48 49 50

000
ASUS43 KTOP 292208
RWRKS

WEATHER ROUNDUP FOR KANSAS
NATIONAL WEATHER SERVICE GOODLAND KS
500 PM CDT FRI APR 29 2016

NOTE:  "FAIR" INDICATES FEW OR NO CLOUDS BELOW 12,000 FEET WITH NO
SIGNIFICANT WEATHER AND/OR OBSTRUCTIONS TO VISIBILITY.

KSZ001>006-013>018-027>032-041>047-292300-
NORTHWEST KANSAS

CITY           SKY/WX    TMP DP  RH WIND       PRES   REMARKS
GOODLAND       HVY RAIN  34  33  96 N10       29.88R FOG     WCI  26
HAYS           CLOUDY    46  36  66 NE28G36   29.76F
HILL CITY      CLOUDY    44  41  89 NE23G30   29.81F
RUSSELL        CLOUDY    46  44  93 NE24G33   29.75F
$$

KSZ061>065-074>080-084>089-292300-
SOUTHWEST KANSAS

CITY           SKY/WX    TMP DP  RH WIND       PRES   REMARKS
DODGE CITY     LGT RAIN  45  43  93 E23       29.72F FOG
ELKHART          N/A     44  38  79 NW12        N/A
GARDEN CITY    HVY RAIN  44  43  96 N7        29.80R VSB 1/2
GREAT BEND     CLOUDY    46  39  76 E22       29.77S
LIBERAL        CLOUDY    48  45  87 E6        29.77F
PRATT          CLOUDY    42  41  95 E22       29.73F
$$

KSZ066>073-081>083-090>101-292300-
SOUTHEAST KANSAS

CITY           SKY/WX    TMP DP  RH WIND       PRES   REMARKS
CHANUTE        TSTM      59  54  83 NE15G22   29.75F
COFFEYVILLE    CLOUDY    66  57  72 E16G23    29.71F
HUTCHINSON     CLOUDY    48  45  89 NE18G28   29.75F
MEDICINE LODGE   N/A     48  46  93 NE16G23   29.70F
NEWTON         CLOUDY    48  43  81 NE17G29   29.78F
PARSONS        PTSUNNY   60  59  96 E10G17    29.74F
WICHITA INTL   CLOUDY    53  48  83 NE24G35   29.74F
WICHITA JABRA  CLOUDY    52  32  46 NE25G33   29.73F
WICHITA MCCONL CLOUDY    52  49  88 NE22G29   29.73F
WINFIELD       CLOUDY    56  53  90 NE14      29.72F
$$

KSZ007>012-019>026-033>040-048>060-102>105-292300-
NORTHEAST KANSAS

CITY           SKY/WX    TMP DP  RH WIND       PRES   REMARKS
CONCORDIA      CLOUDY    47  44  90 NE20G33   29.84F
EMPORIA        CLOUDY    51  49  92 NE18      29.81R
LAWRENCE       LGT RAIN  52  49  89 NE13G25   29.87F
MANHATTAN      LGT RAIN  49  45  86 NE20      29.85F
MARYSVILLE     RAIN      46  45  93 NE15      29.92F
OLATHE IND     LGT RAIN  53  50  89 NE14G28   29.86F
OLATHE EXE     LGT RAIN  52  49  89 NE16G25   29.84F
SALINA         CLOUDY    50  47  89 NE16G32   29.80F
TOPEKA BILLARD RAIN      52  48  86 N8        29.96R FOG
TOPEKA FORBES  HVY RAIN  52  49  89 N8        29.96R FOG
$$




USA.gov is the U.S. government's official web portal to all federal, state and local government web resources and services.